Location: ????????
(55.0808°N, 38.5463°E)
Time: 01:30:51
(UTC+00:00)

Nimbus 3 Rocket - Pass Details

Date: 25 September 2024
Orbit: 1072 x 1131 km, 99.9° (Epoch: 03 October)

Event Time Altitude Azimuth Distance (km) Brightness Sun altitude
Rises 23:42:34 0° 17° (NNE) 3,913 9.1 -28.7°
Reaches altitude 10° 23:45:31 10° 6° (N) 2,944 8.1 -28.4°
Maximum altitude 23:50:49 26° 313° (NW) 1,975 6.5 -27.9°
Enters shadow 23:51:53 25° 298° (WNW) 2,021 6.5 -27.8°
